TimeMDT,TemperatureF,Dew PointF,Humidity,Sea Level PressureIn,VisibilityMPH,Wind Direction,Wind SpeedMPH,Gust SpeedMPH,PrecipitationIn,Events,Conditions,WindDirDegrees,DateUTC
12:53 AM,53.1,28.0,38,29.91,10.0,NW,17.3,-,N/A,,Clear,310,2013-09-24 06:53:00
1:53 AM,51.1,28.0,41,29.93,10.0,WNW,11.5,-,N/A,,Clear,290,2013-09-24 07:53:00
2:53 AM,46.9,30.0,52,29.94,10.0,WSW,9.2,-,N/A,,Clear,240,2013-09-24 08:53:00
3:53 AM,46.9,28.9,50,29.94,10.0,WSW,10.4,-,N/A,,Clear,250,2013-09-24 09:53:00
4:53 AM,46.9,28.9,50,29.94,10.0,West,9.2,-,N/A,,Clear,260,2013-09-24 10:53:00
5:53 AM,45.0,28.9,53,29.95,10.0,SW,6.9,-,N/A,,Clear,230,2013-09-24 11:53:00
6:53 AM,44.1,28.9,55,29.97,10.0,SW,8.1,-,N/A,,Clear,230,2013-09-24 12:53:00
7:53 AM,46.9,30.9,54,29.98,10.0,SSW,3.5,-,N/A,,Clear,200,2013-09-24 13:53:00
8:53 AM,53.1,28.9,40,29.96,10.0,Calm,Calm,-,N/A,,Clear,0,2013-09-24 14:53:00
9:53 AM,55.9,30.9,39,29.94,10.0,East,5.8,-,N/A,,Clear,90,2013-09-24 15:53:00
10:53 AM,60.1,30.0,32,29.90,10.0,NE,9.2,-,N/A,,Clear,50,2013-09-24 16:53:00
11:53 AM,63.0,30.9,30,29.87,10.0,East,3.5,-,N/A,,Clear,100,2013-09-24 17:53:00
12:53 PM,66.9,33.1,28,29.81,10.0,Calm,Calm,-,N/A,,Clear,0,2013-09-24 18:53:00
1:53 PM,72.0,28.0,20,29.74,10.0,South,8.1,-,N/A,,Clear,190,2013-09-24 19:53:00
2:53 PM,73.9,24.1,16,29.70,10.0,South,10.4,-,N/A,,Clear,170,2013-09-24 20:53:00
3:53 PM,75.9,21.0,13,29.65,10.0,SSW,20.7,29.9,N/A,,Clear,200,2013-09-24 21:53:00
4:53 PM,75.9,19.9,12,29.63,10.0,South,18.4,26.5,N/A,,Clear,190,2013-09-24 22:53:00
5:53 PM,75.0,21.0,13,29.63,10.0,South,15.0,28.8,N/A,,Clear,190,2013-09-24 23:53:00
6:53 PM,69.1,25.0,19,29.63,10.0,SSW,8.1,-,N/A,,Clear,200,2013-09-25 00:53:00
7:53 PM,68.0,26.1,21,29.64,10.0,SSW,11.5,20.7,N/A,,Clear,200,2013-09-25 01:53:00
8:53 PM,66.0,27.0,23,29.63,10.0,Calm,Calm,-,N/A,,Clear,0,2013-09-25 02:53:00
9:53 PM,64.0,27.0,25,29.63,10.0,Calm,Calm,-,N/A,,Clear,0,2013-09-25 03:53:00
10:53 PM,57.0,28.9,34,29.63,10.0,South,8.1,-,N/A,,Clear,170,2013-09-25 04:53:00
11:53 PM,55.9,28.9,36,29.61,10.0,SSE,8.1,-,N/A,,Clear,160,2013-09-25 05:53:00